QPF
0.12 0.14 0.18 0.26 0.31 0.36 0.28 0.19 0.06 0.02 0.01 0.01 0.01 0.01 0.01 0.00 0.01 0.01 0.01 0.03 0.05 0.08 0.06 0.08 0.14 0.13 0.15 0.07 0.04 0.02 0.01 0.01 0.08 0.03 0.01 0.01 0.00 0.00 0.00 0.00 0.00 0.00 0.00
0.04 0.05 0.08 0.15 0.24 0.23 0.13 0.07 0.02 0.01 0.01 0.01 0.01 0.01 0.02 0.02 0.02 0.02 0.01 0.02 0.02 0.04 0.03 0.03 0.09 0.14 0.15 0.08 0.03 0.02 0.01 0.01 0.04 0.01 0.00 0.01 0.00 0.00 0.00 0.00 0.00 0.00 0.00
0.01 0.04 0.05 0.05 0.08 0.07 0.03 0.01 0.00 0.00 0.00 0.01 0.02 0.03 0.04 0.03 0.02 0.01 0.01 0.02 0.02 0.02 0.02 0.03 0.05 0.08 0.16 0.11 0.02 0.00 0.01 0.04 0.04 0.02 0.00 0.00 0.00 0.00 0.00 0.00 0.00 0.00 0.00
0.02 0.03 0.03 0.03 0.02 0.01 0.01 0.00 0.00 0.00 0.01 0.03 0.06 0.08 0.06 0.04 0.04 0.02 0.03 0.03 0.01 0.01 0.01 0.03 0.02 0.02 0.04 0.04 0.01 0.00 0.03 0.03 0.07 0.04 0.01 0.00 0.00 0.00 0.00 0.00 0.00 0.00 0.00
0.01 0.01 0.01 0.01 0.01 0.00 0.00 0.00 0.00 0.00 0.01 0.04 0.07 0.15 0.16 0.14 0.10 0.12 0.07 0.09 0.05 0.03 0.04 0.06 0.05 0.11 0.25 0.22 0.12 0.07 0.08 0.05 0.07 0.06 0.02 0.00 0.00 0.00 0.00 0.00 0.00 0.00 0.00
0.01 0.01 0.01 0.01 0.00 0.00 0.00 0.00 0.00 0.01 0.01 0.03 0.07 0.14 0.19 0.16 0.38 0.38 0.23 0.13 0.07 0.05 0.04 0.04 0.04 0.09 0.25 0.40 0.39 0.28 0.21 0.19 0.10 0.05 0.02 0.01 0.00 0.00 0.00 0.00 0.00 0.00 0.00
0.01 0.01 0.01 0.00 0.00 0.00 0.00 0.00 0.00 0.02 0.03 0.03 0.05 0.05 0.09 0.18 0.21 0.17 0.13 0.06 0.07 0.06 0.02 0.01 0.01 0.02 0.05 0.08 0.14 0.15 0.23 0.32 0.23 0.10 0.02 0.01 0.00 0.00 0.00 0.00 0.00 0.00 0.00
0.02 0.01 0.01 0.00 0.00 0.00 0.00 0.00 0.00 0.01 0.02 0.03 0.04 0.03 0.03 0.05 0.04 0.05 0.06 0.03 0.03 0.03 0.01 0.00 0.00 0.01 0.01 0.02 0.03 0.03 0.06 0.12 0.13 0.10 0.03 0.02 0.02 0.00 0.00 0.00 0.00 0.00 0.00
0.03 0.02 0.02 0.02 0.02 0.02 0.01 0.01 0.00 0.00 0.01 0.02 0.03 0.08 0.09 0.06 0.03 0.02 0.03 0.05 0.04 0.02 0.01 0.00 0.00 0.02 0.04 0.07 0.07 0.05 0.08 0.07 0.06 0.05 0.08 0.11 0.08 0.01 0.00 0.00 0.00 0.00 0.00
0.05 0.05 0.05 0.04 0.04 0.03 0.02 0.01 0.01 0.01 0.01 0.01 0.01 0.05 0.09 0.08 0.03 0.01 0.02 0.06 0.06 0.04 0.02 0.01 0.00 0.03 0.11 0.13 0.15 0.15 0.18 0.09 0.04 0.02 0.02 0.04 0.03 0.00 0.00 0.00 0.00 0.00 0.00
0.04 0.04 0.04 0.04 0.05 0.04 0.02 0.02 0.04 0.05 0.04 0.02 0.04 0.04 0.05 0.07 0.05 0.01 0.01 0.03 0.03 0.02 0.02 0.02 0.01 0.02 0.09 0.17 0.20 0.25 0.27 0.15 0.03 0.01 0.00 0.00 0.00 0.00 0.00 0.00 0.00 0.00 0.00
0.03 0.04 0.05 0.07 0.07 0.04 0.04 0.05 0.06 0.07 0.07 0.08 0.09 0.11 0.12 0.09 0.07 0.05 0.01 0.00 0.00 0.00 0.02 0.05 0.05 0.05 0.06 0.10 0.13 0.19 0.32 0.24 0.06 0.01 0.00 0.00 0.00 0.00 0.00 0.00 0.00 0.00 0.00
0.02 0.04 0.06 0.07 0.06 0.04 0.05 0.10 0.12 0.12 0.08 0.07 0.08 0.13 0.14 0.12 0.10 0.09 0.03 0.00 0.00 0.00 0.02 0.07 0.10 0.10 0.08 0.06 0.08 0.12 0.21 0.24 0.11 0.04 0.01 0.00 0.00 0.00 0.00 0.00 0.00 0.00 0.00
0.01 0.02 0.04 0.04 0.02 0.02 0.05 0.09 0.12 0.14 0.14 0.15 0.15 0.17 0.22 0.19 0.13 0.11 0.04 0.01 0.00 0.00 0.01 0.03 0.06 0.10 0.11 0.08 0.06 0.07 0.09 0.10 0.06 0.04 0.01 0.00 0.00 0.00 0.00 0.00 0.00 0.00 0.00
0.01 0.01 0.01 0.02 0.02 0.01 0.04 0.08 0.10 0.13 0.12 0.14 0.19 0.23 0.23 0.18 0.15 0.18 0.14 0.06 0.02 0.00 0.00 0.01 0.03 0.03 0.05 0.07 0.06 0.04 0.03 0.02 0.01 0.01 0.00 0.00 0.00 0.00 0.00 0.00 0.00 0.00 0.00
0.06 0.02 0.02 0.02 0.04 0.04 0.04 0.04 0.02 0.04 0.02 0.02 0.03 0.06 0.09 0.08 0.07 0.06 0.10 0.13 0.09 0.03 0.01 0.03 0.03 0.03 0.03 0.04 0.04 0.03 0.02 0.01 0.00 0.00 0.00 0.00 0.00 0.00 0.00 0.00 0.00 0.00 0.00
0.14 0.11 0.06 0.04 0.04 0.04 0.03 0.02 0.02 0.01 0.00 0.00 0.00 0.00 0.01 0.01 0.00 0.00 0.01 0.04 0.08 0.06 0.03 0.03 0.02 0.02 0.02 0.02 0.02 0.02 0.01 0.01 0.00 0.00 0.00 0.00 0.00 0.00 0.00 0.00 0.00 0.00 0.00
0.03 0.03 0.04 0.06 0.03 0.02 0.04 0.08 0.09 0.07 0.05 0.03 0.01 0.00 0.00 0.00 0.00 0.00 0.00 0.01 0.03 0.04 0.04 0.06 0.04 0.03 0.02 0.01 0.01 0.01 0.00 0.00 0.00 0.00 0.00 0.00 0.00 0.00 0.00 0.00 0.00 0.00 0.00
0.00 0.01 0.07 0.08 0.03 0.02 0.05 0.11 0.10 0.08 0.06 0.05 0.01 0.00 0.00 0.00 0.00 0.00 0.01 0.01 0.02 0.02 0.03 0.09 0.09 0.07 0.05 0.03 0.02 0.02 0.01 0.00 0.00 0.00 0.00 0.00 0.00 0.00 0.00 0.00 0.00 0.00 0.00
0.02 0.01 0.08 0.12 0.04 0.01 0.02 0.02 0.02 0.02 0.01 0.01 0.01 0.01 0.00 0.00 0.01 0.01 0.01 0.01 0.01 0.01 0.02 0.05 0.06 0.07 0.07 0.05 0.03 0.02 0.01 0.01 0.00 0.00 0.00 0.00 0.00 0.00 0.00 0.00 0.00 0.00 0.00
0.05 0.02 0.02 0.12 0.12 0.05 0.02 0.02 0.02 0.04 0.03 0.03 0.02 0.00 0.00 0.01 0.02 0.02 0.01 0.01 0.00 0.01 0.01 0.02 0.03 0.07 0.05 0.03 0.02 0.02 0.01 0.01 0.00 0.00 0.00 0.00 0.00 0.00 0.00 0.00 0.00 0.00 0.00
0.02 0.02 0.02 0.09 0.13 0.07 0.03 0.02 0.01 0.02 0.02 0.03 0.02 0.00 0.00 0.01 0.01 0.02 0.02 0.02 0.02 0.01 0.01 0.02 0.04 0.07 0.08 0.05 0.04 0.03 0.03 0.01 0.01 0.01 0.00 0.00 0.00 0.00 0.00 0.00 0.00 0.00 0.00
0.01 0.01 0.02 0.05 0.04 0.02 0.02 0.02 0.01 0.02 0.01 0.01 0.01 0.00 0.00 0.00 0.00 0.01 0.01 0.04 0.05 0.04 0.02 0.02 0.04 0.08 0.10 0.10 0.09 0.09 0.07 0.05 0.03 0.02 0.02 0.02 0.02 0.02 0.01 0.01 0.00 0.00 0.00
0.00 0.00 0.01 0.01 0.01 0.02 0.03 0.03 0.02 0.02 0.03 0.01 0.01 0.00 0.00 0.00 0.00 0.00 0.01 0.02 0.05 0.05 0.03 0.03 0.04 0.04 0.05 0.07 0.10 0.10 0.08 0.05 0.02 0.01 0.01 0.02 0.02 0.02 0.01 0.01 0.00 0.00 0.00
0.02 0.01 0.01 0.01 0.02 0.02 0.02 0.03 0.03 0.02 0.04 0.03 0.02 0.01 0.00 0.00 0.01 0.01 0.01 0.01 0.02 0.02 0.01 0.02 0.04 0.05 0.04 0.03 0.05 0.06 0.07 0.05 0.02 0.01 0.00 0.00 0.00 0.00 0.00 0.00 0.00 0.00 0.00
0.01 0.01 0.01 0.02 0.03 0.02 0.03 0.03 0.02 0.02 0.03 0.03 0.02 0.02 0.02 0.01 0.01 0.01 0.01 0.01 0.01 0.01 0.02 0.02 0.03 0.05 0.05 0.05 0.04 0.03 0.03 0.03 0.02 0.02 0.01 0.01 0.01 0.01 0.00 0.00 0.00 0.00 0.00
MSLP
1010.13 1010.39 1010.61 1010.78 1010.90 1010.96 1010.99 1011.01 1011.05 1011.12 1011.26 1011.44 1011.69 1011.96 1012.25 1012.53 1012.78 1012.98 1013.15 1013.27 1013.38 1013.49 1013.62 1013.79 1014.03 1014.35 1014.76 1015.26 1015.85 1016.52 1017.25 1018.03 1018.81 1019.58 1020.30 1020.96 1021.52 1021.97 1022.33 1022.59 1022.76 1022.88 1022.95
1010.00 1010.29 1010.54 1010.74 1010.90 1010.99 1011.04 1011.07 1011.09 1011.12 1011.19 1011.31 1011.47 1011.67 1011.90 1012.14 1012.37 1012.58 1012.76 1012.92 1013.05 1013.17 1013.29 1013.44 1013.64 1013.90 1014.25 1014.70 1015.25 1015.91 1016.66 1017.47 1018.33 1019.19 1020.01 1020.76 1021.42 1021.96 1022.39 1022.72 1022.96 1023.13 1023.25
1009.78 1010.11 1010.42 1010.68 1010.88 1011.03 1011.11 1011.14 1011.15 1011.14 1011.15 1011.19 1011.26 1011.38 1011.53 1011.72 1011.93 1012.14 1012.35 1012.54 1012.72 1012.88 1013.03 1013.19 1013.37 1013.60 1013.91 1014.32 1014.83 1015.46 1016.20 1017.03 1017.92 1018.82 1019.70 1020.53 1021.26 1021.87 1022.38 1022.77 1023.07 1023.30 1023.49
1009.42 1009.82 1010.19 1010.52 1010.80 1011.00 1011.13 1011.19 1011.20 1011.18 1011.13 1011.10 1011.09 1011.13 1011.21 1011.35 1011.52 1011.73 1011.96 1012.19 1012.42 1012.63 1012.83 1013.02 1013.22 1013.45 1013.73 1014.10 1014.58 1015.17 1015.87 1016.66 1017.54 1018.45 1019.35 1020.20 1020.98 1021.66 1022.22 1022.69 1023.06 1023.36 1023.61
1008.94 1009.39 1009.83 1010.24 1010.59 1010.87 1011.07 1011.18 1011.22 1011.19 1011.13 1011.06 1010.99 1010.97 1010.99 1011.07 1011.21 1011.41 1011.64 1011.91 1012.18 1012.45 1012.70 1012.93 1013.16 1013.40 1013.67 1014.01 1014.43 1014.96 1015.59 1016.33 1017.14 1018.01 1018.89 1019.75 1020.54 1021.26 1021.89 1022.42 1022.87 1023.26 1023.60
1008.37 1008.87 1009.36 1009.84 1010.26 1010.62 1010.89 1011.08 1011.17 1011.18 1011.14 1011.06 1010.97 1010.90 1010.88 1010.92 1011.02 1011.20 1011.43 1011.71 1012.02 1012.32 1012.62 1012.89 1013.15 1013.40 1013.66 1013.97 1014.34 1014.79 1015.34 1015.98 1016.71 1017.50 1018.32 1019.14 1019.93 1020.67 1021.34 1021.94 1022.48 1022.96 1023.40
1007.81 1008.31 1008.84 1009.36 1009.84 1010.27 1010.62 1010.88 1011.05 1011.12 1011.13 1011.07 1011.00 1010.92 1010.88 1010.89 1010.97 1011.12 1011.34 1011.61 1011.92 1012.25 1012.57 1012.88 1013.16 1013.42 1013.68 1013.95 1014.26 1014.64 1015.09 1015.62 1016.24 1016.92 1017.66 1018.41 1019.17 1019.91 1020.62 1021.28 1021.89 1022.47 1023.00
1007.33 1007.82 1008.34 1008.87 1009.39 1009.86 1010.27 1010.61 1010.85 1011.00 1011.08 1011.08 1011.04 1010.99 1010.95 1010.95 1011.01 1011.13 1011.33 1011.59 1011.90 1012.23 1012.56 1012.88 1013.18 1013.45 1013.70 1013.94 1014.20 1014.50 1014.85 1015.28 1015.77 1016.34 1016.97 1017.65 1018.36 1019.07 1019.79 1020.49 1021.16 1021.81 1022.43
1007.03 1007.47 1007.95 1008.46 1008.97 1009.46 1009.90 1010.29 1010.60 1010.82 1010.97 1011.04 1011.06 1011.05 1011.04 1011.04 1011.09 1011.20 1011.38 1011.62 1011.91 1012.23 1012.57 1012.90 1013.21 1013.48 1013.73 1013.96 1014.18 1014.41 1014.68 1015.00 1015.39 1015.85 1016.37 1016.96 1017.60 1018.27 1018.97 1019.68 1020.39 1021.08 1021.75
1006.95 1007.32 1007.74 1008.19 1008.65 1009.12 1009.56 1009.96 1010.31 1010.59 1010.80 1010.94 1011.02 1011.06 1011.08 1011.11 1011.17 1011.27 1011.44 1011.66 1011.94 1012.26 1012.60 1012.94 1013.26 1013.54 1013.80 1014.02 1014.21 1014.41 1014.62 1014.86 1015.16 1015.52 1015.94 1016.45 1017.01 1017.63 1018.28 1018.97 1019.67 1020.37 1021.06
1007.08 1007.37 1007.71 1008.08 1008.47 1008.88 1009.28 1009.67 1010.02 1010.32 1010.56 1010.75 1010.88 1010.97 1011.04 1011.11 1011.19 1011.31 1011.48 1011.70 1011.98 1012.30 1012.64 1012.99 1013.33 1013.63 1013.90 1014.13 1014.33 1014.51 1014.68 1014.88 1015.11 1015.39 1015.74 1016.16 1016.65 1017.20 1017.81 1018.45 1019.11 1019.78 1020.44
1007.35 1007.58 1007.83 1008.12 1008.42 1008.75 1009.09 1009.42 1009.74 1010.03 1010.28 1010.49 1010.67 1010.80 1010.92 1011.03 1011.15 1011.30 1011.49 1011.73 1012.02 1012.34 1012.70 1013.06 1013.42 1013.75 1014.04 1014.29 1014.50 1014.68 1014.85 1015.02 1015.22 1015.46 1015.76 1016.12 1016.55 1017.03 1017.57 1018.15 1018.75 1019.36 1019.96
1007.69 1007.86 1008.05 1008.25 1008.47 1008.71 1008.96 1009.23 1009.49 1009.74 1009.98 1010.20 1010.40 1010.57 1010.73 1010.88 1011.05 1011.24 1011.46 1011.73 1012.04 1012.38 1012.76 1013.13 1013.51 1013.86 1014.17 1014.45 1014.68 1014.88 1015.06 1015.24 1015.43 1015.66 1015.93 1016.25 1016.63 1017.07 1017.55 1018.06 1018.60 1019.14 1019.67
1007.99 1008.14 1008.28 1008.42 1008.57 1008.72 1008.90 1009.08 1009.28 1009.49 1009.70 1009.91 1010.11 1010.31 1010.51 1010.71 1010.92 1011.16 1011.42 1011.72 1012.05 1012.41 1012.79 1013.18 1013.56 1013.93 1014.26 1014.55 1014.81 1015.03 1015.24 1015.44 1015.64 1015.87 1016.14 1016.46 1016.82 1017.22 1017.66 1018.12 1018.60 1019.07 1019.53
1008.18 1008.32 1008.44 1008.54 1008.64 1008.74 1008.85 1008.98 1009.12 1009.28 1009.46 1009.66 1009.86 1010.08 1010.31 1010.55 1010.80 1011.07 1011.37 1011.69 1012.04 1012.41 1012.79 1013.17 1013.55 1013.91 1014.24 1014.55 1014.82 1015.06 1015.30 1015.52 1015.75 1016.01 1016.29 1016.62 1016.98 1017.37 1017.79 1018.23 1018.66 1019.09 1019.49
1008.21 1008.36 1008.48 1008.57 1008.65 1008.73 1008.80 1008.89 1009.00 1009.13 1009.29 1009.47 1009.68 1009.92 1010.17 1010.43 1010.72 1011.02 1011.33 1011.66 1012.01 1012.37 1012.73 1013.10 1013.45 1013.79 1014.11 1014.41 1014.68 1014.94 1015.19 1015.44 1015.70 1015.99 1016.30 1016.65 1017.02 1017.42 1017.84 1018.27 1018.69 1019.09 1019.46
1008.09 1008.25 1008.39 1008.50 1008.58 1008.66 1008.73 1008.81 1008.91 1009.04 1009.19 1009.38 1009.60 1009.84 1010.10 1010.39 1010.68 1010.99 1011.31 1011.63 1011.96 1012.30 1012.63 1012.95 1013.27 1013.58 1013.87 1014.15 1014.42 1014.68 1014.94 1015.21 1015.49 1015.80 1016.14 1016.51 1016.90 1017.32 1017.75 1018.17 1018.59 1018.99 1019.35
1007.86 1008.04 1008.20 1008.33 1008.44 1008.54 1008.64 1008.74 1008.86 1009.00 1009.17 1009.37 1009.59 1009.84 1010.11 1010.40 1010.69 1010.99 1011.30 1011.60 1011.89 1012.19 1012.47 1012.76 1013.03 1013.30 1013.56 1013.82 1014.07 1014.33 1014.60 1014.87 1015.18 1015.50 1015.85 1016.23 1016.63 1017.05 1017.48 1017.91 1018.33 1018.72 1019.08
1007.59 1007.78 1007.96 1008.12 1008.26 1008.40 1008.54 1008.68 1008.83 1009.00 1009.20 1009.41 1009.65 1009.90 1010.17 1010.45 1010.73 1011.00 1011.28 1011.54 1011.80 1012.04 1012.29 1012.53 1012.76 1013.00 1013.23 1013.47 1013.72 1013.97 1014.24 1014.52 1014.82 1015.14 1015.49 1015.86 1016.25 1016.65 1017.07 1017.48 1017.89 1018.27 1018.63
1007.37 1007.55 1007.73 1007.91 1008.09 1008.27 1008.45 1008.63 1008.83 1009.03 1009.26 1009.49 1009.73 1009.99 1010.24 1010.50 1010.75 1010.99 1011.23 1011.45 1011.66 1011.87 1012.08 1012.28 1012.49 1012.71 1012.93 1013.17 1013.41 1013.66 1013.93 1014.20 1014.49 1014.80 1015.12 1015.46 1015.81 1016.18 1016.56 1016.93 1017.31 1017.67 1018.02
1007.24 1007.41 1007.58 1007.77 1007.97 1008.18 1008.39 1008.61 1008.84 1009.08 1009.32 1009.56 1009.81 1010.05 1010.29 1010.52 1010.73 1010.94 1011.13 1011.31 1011.49 1011.67 1011.85 1012.04 1012.24 1012.45 1012.68 1012.92 1013.17 1013.43 1013.69 1013.96 1014.23 1014.50 1014.79 1015.07 1015.37 1015.68 1015.99 1016.32 1016.65 1016.97 1017.29
1007.23 1007.37 1007.54 1007.72 1007.92 1008.14 1008.37 1008.61 1008.86 1009.11 1009.36 1009.61 1009.84 1010.07 1010.28 1010.47 1010.65 1010.81 1010.97 1011.12 1011.27 1011.42 1011.59 1011.78 1011.98 1012.21 1012.45 1012.70 1012.97 1013.23 1013.50 1013.75 1014.00 1014.24 1014.47 1014.70 1014.93 1015.17 1015.42 1015.68 1015.95 1016.24 1016.53
1007.34 1007.46 1007.60 1007.77 1007.96 1008.17 1008.40 1008.64 1008.89 1009.14 1009.37 1009.61 1009.82 1010.02 1010.19 1010.35 1010.49 1010.62 1010.74 1010.87 1010.99 1011.14 1011.30 1011.49 1011.70 1011.94 1012.20 1012.47 1012.75 1013.02 1013.28 1013.52 1013.74 1013.95 1014.13 1014.31 1014.48 1014.65 1014.84 1015.05 1015.28 1015.53 1015.80
1007.53 1007.63 1007.76 1007.90 1008.07 1008.26 1008.47 1008.69 1008.92 1009.14 1009.36 1009.56 1009.74 1009.91 1010.05 1010.18 1010.29 1010.38 1010.48 1010.58 1010.69 1010.82 1010.98 1011.16 1011.38 1011.62 1011.89 1012.16 1012.43 1012.70 1012.95 1013.17 1013.37 1013.54 1013.69 1013.83 1013.97 1014.11 1014.26 1014.45 1014.66 1014.91 1015.19
1007.76 1007.85 1007.96 1008.08 1008.22 1008.38 1008.56 1008.75 1008.94 1009.13 1009.31 1009.48 1009.63 1009.77 1009.88 1009.98 1010.06 1010.13 1010.20 1010.28 1010.37 1010.49 1010.63 1010.80 1011.00 1011.23 1011.47 1011.73 1011.98 1012.22 1012.45 1012.65 1012.83 1012.98 1013.12 1013.24 1013.37 1013.51 1013.68 1013.87 1014.11 1014.39 1014.70
1007.97 1008.06 1008.16 1008.27 1008.38 1008.52 1008.66 1008.81 1008.96 1009.12 1009.26 1009.40 1009.52 1009.63 1009.72 1009.80 1009.86 1009.91 1009.97 1010.03 1010.10 1010.19 1010.30 1010.43 1010.59 1010.78 1010.97 1011.18 1011.39 1011.59 1011.78 1011.95 1012.11 1012.26 1012.39 1012.54 1012.69 1012.87 1013.08 1013.34 1013.63 1013.98 1014.36
Thickness
5692 5689 5686 5684 5684 5681 5681 5684 5689 5692 5695 5696 5694 5693 5693 5694 5694 5694 5693 5694 5693 5693 5692 5690 5689 5688 5684 5684 5692 5693 5688 5682 5669 5663 5659 5657 5654 5652 5648 5644 5641 5639 5638
5689 5685 5681 5679 5678 5676 5677 5680 5685 5687 5689 5690 5690 5689 5690 5691 5692 5692 5691 5692 5691 5690 5690 5689 5688 5687 5683 5685 5692 5690 5687 5683 5673 5661 5654 5652 5649 5647 5645 5641 5638 5634 5632
5686 5681 5677 5675 5674 5673 5674 5676 5679 5680 5681 5683 5684 5685 5686 5687 5689 5691 5692 5691 5691 5691 5691 5689 5688 5687 5683 5684 5691 5691 5688 5681 5673 5662 5654 5648 5644 5643 5641 5638 5635 5630 5627
5685 5679 5674 5672 5672 5672 5671 5672 5672 5672 5674 5677 5680 5681 5682 5683 5685 5688 5690 5690 5691 5692 5692 5690 5691 5691 5692 5691 5691 5690 5685 5676 5668 5660 5653 5645 5641 5639 5638 5634 5629 5626 5624
5684 5678 5674 5672 5670 5669 5667 5666 5666 5666 5668 5671 5673 5675 5676 5677 5680 5682 5684 5686 5688 5688 5688 5686 5685 5686 5687 5686 5686 5682 5678 5672 5664 5658 5652 5645 5639 5636 5635 5633 5627 5623 5620
5681 5676 5673 5671 5669 5666 5663 5661 5660 5660 5661 5662 5665 5667 5669 5672 5674 5675 5676 5679 5682 5681 5680 5679 5679 5680 5679 5677 5676 5675 5673 5670 5666 5660 5653 5649 5644 5639 5637 5634 5628 5623 5617
5678 5673 5668 5666 5664 5661 5658 5656 5654 5653 5654 5655 5658 5662 5664 5665 5667 5668 5672 5674 5673 5673 5674 5673 5674 5674 5673 5671 5671 5672 5670 5666 5668 5666 5658 5654 5649 5645 5640 5634 5631 5627 5623
5673 5668 5663 5659 5656 5653 5651 5649 5649 5648 5648 5649 5652 5655 5656 5658 5660 5661 5664 5667 5666 5665 5665 5665 5665 5665 5665 5666 5667 5666 5665 5662 5665 5667 5665 5661 5655 5649 5644 5639 5634 5628 5626
5668 5663 5659 5654 5649 5646 5644 5643 5644 5643 5644 5644 5646 5648 5649 5651 5653 5654 5655 5657 5658 5659 5659 5659 5659 5657 5659 5660 5659 5658 5658 5657 5662 5667 5667 5662 5655 5649 5644 5638 5632 5626 5620
5659 5654 5650 5647 5642 5638 5637 5638 5639 5639 5640 5641 5642 5643 5645 5646 5647 5648 5648 5650 5650 5650 5651 5651 5653 5652 5652 5653 5652 5651 5650 5651 5656 5659 5661 5659 5651 5646 5643 5640 5636 5629 5622
5648 5643 5638 5635 5633 5631 5630 5632 5633 5633 5634 5634 5636 5637 5639 5641 5641 5642 5642 5642 5643 5642 5642 5642 5643 5645 5645 5646 5645 5645 5644 5645 5648 5652 5653 5650 5646 5643 5641 5638 5636 5632 5627
5635 5629 5625 5622 5622 5623 5623 5624 5625 5626 5626 5627 5628 5630 5633 5635 5636 5635 5635 5635 5637 5636 5635 5635 5636 5637 5637 5638 5638 5639 5639 5640 5641 5644 5644 5641 5639 5638 5639 5638 5635 5633 5632
5622 5616 5611 5609 5610 5614 5616 5616 5617 5618 5619 5621 5623 5624 5626 5629 5630 5630 5629 5629 5630 5631 5631 5629 5628 5629 5629 5630 5631 5632 5632 5632 5633 5636 5637 5636 5635 5634 5634 5635 5633 5630 5629
5611 5604 5599 5597 5600 5606 5610 5611 5612 5613 5615 5617 5619 5620 5622 5624 5626 5625 5624 5623 5624 5624 5623 5621 5620 5619 5620 5622 5623 5624 5625 5627 5629 5632 5633 5632 5630 5628 5627 5629 5628 5625 5622
5605 5599 5593 5591 5593 5598 5604 5606 5609 5611 5614 5615 5617 5619 5620 5621 5624 5625 5623 5621 5620 5619 5615 5612 5611 5610 5611 5613 5614 5616 5619 5623 5627 5629 5628 5624 5622 5621 5621 5623 5622 5619 5616
5603 5598 5593 5591 5592 5596 5599 5601 5603 5607 5609 5611 5614 5616 5619 5621 5622 5621 5620 5618 5617 5614 5610 5606 5606 5607 5607 5608 5609 5611 5614 5618 5621 5624 5622 5620 5617 5615 5614 5615 5617 5614 5611
5604 5600 5597 5595 5595 5596 5599 5601 5602 5602 5605 5607 5610 5612 5614 5614 5615 5614 5613 5611 5609 5606 5603 5600 5600 5601 5602 5602 5602 5604 5607 5610 5613 5615 5614 5613 5612 5610 5609 5609 5610 5609 5607
5607 5602 5600 5599 5599 5599 5601 5603 5605 5605 5605 5606 5606 5608 5608 5609 5608 5607 5604 5601 5598 5596 5597 5595 5595 5595 5595 5595 5595 5596 5599 5601 5603 5605 5606 5607 5606 5605 5604 5604 5605 5604 5602
5610 5607 5605 5604 5604 5604 5605 5607 5608 5610 5609 5607 5606 5603 5603 5602 5601 5599 5597 5595 5593 5590 5589 5589 5589 5590 5590 5590 5590 5591 5592 5594 5596 5598 5600 5600 5600 5599 5599 5599 5600 5600 5599
5615 5611 5609 5609 5609 5609 5610 5611 5611 5610 5608 5606 5604 5602 5599 5597 5596 5593 5591 5589 5587 5584 5582 5582 5582 5584 5585 5586 5586 5586 5587 5589 5591 5593 5594 5595 5594 5594 5595 5595 5595 5595 5594
5617 5615 5612 5612 5612 5612 5610 5610 5609 5608 5605 5603 5602 5600 5597 5596 5593 5591 5588 5586 5583 5579 5577 5577 5577 5578 5580 5582 5582 5583 5585 5586 5587 5588 5589 5590 5590 5589 5590 5591 5592 5592 5591
5619 5617 5615 5615 5614 5612 5611 5610 5609 5607 5604 5602 5599 5596 5594 5593 5591 5589 5586 5584 5582 5579 5577 5576 5576 5577 5578 5580 5581 5581 5582 5583 5584 5584 5585 5586 5586 5586 5586 5587 5588 5587 5586
5622 5619 5617 5616 5616 5613 5612 5612 5610 5607 5604 5601 5599 5596 5594 5593 5591 5589 5587 5584 5582 5581 5579 5578 5578 5579 5579 5579 5580 5580 5580 5581 5581 5582 5582 5582 5582 5582 5583 5583 5584 5583 5582
5624 5622 5620 5618 5617 5615 5614 5613 5610 5607 5604 5601 5599 5596 5594 5593 5592 5591 5589 5587 5585 5584 5583 5582 5581 5581 5581 5580 5579 5578 5578 5579 5579 5581 5583 5583 5582 5582 5582 5582 5581 5580 5578
5627 5624 5621 5619 5618 5616 5615 5613 5611 5608 5605 5602 5600 5598 5595 5594 5592 5591 5590 5588 5586 5585 5584 5584 5583 5583 5582 5581 5580 5579 5579 5579 5580 5583 5586 5586 5585 5584 5582 5580 5577 5575 5572
5629 5626 5623 5620 5618 5616 5614 5612 5611 5608 5605 5603 5601 5599 5597 5594 5593 5591 5589 5587 5585 5584 5584 5584 5584 5584 5584 5583 5582 5581 5581 5581 5582 5582 5584 5584 5583 5582 5579 5576 5574 5570 5567